z/d,0,0,50,50,100,100,150,150,200,200,300,300,400,400,500,500,600,600,750,750,1000,1000,1250,1250,1500,1500,1750,1750,1900,1900,2000,2000
2018.12.13-01:00,1.70,234.50,1.65,237.08,1.63,248.26,1.00,246.87,.75,262.34,.45,255.07,.48,257.75,.35,287.52,.37,322.46,.46,333.60,.46,331.87,.43,317.85,.44,281.48,.46,239.59,.47,214.61,.15,194.16
2018.12.13-02:00,1.71,234.41,1.66,236.75,1.54,250.62,1.00,246.11,.70,259.75,.48,252.19,.53,262.32,.38,289.29,.38,320.34,.44,329.04,.42,328.54,.40,318.78,.41,282.41,.44,243.78,.45,218.33,.14,197.09
2018.12.13-03:00,1.70,234.42,1.67,236.22,1.45,250.87,1.05,246.29,.68,255.23,.53,250.97,.56,267.11,.41,290.17,.38,316.12,.41,322.29,.40,322.35,.38,316.42,.39,281.85,.45,247.38,.45,221.53,.14,200.02
2018.12.13-04:00,1.71,234.79,1.68,235.77,1.38,248.31,1.11,247.16,.70,248.74,.58,250.20,.58,270.85,.44,290.09,.39,310.34,.40,313.76,.38,313.96,.37,311.57,.39,280.69,.46,250.44,.46,224.82,.14,202.88
2018.12.13-05:00,1.71,236.03,1.69,236.17,1.36,243.68,1.15,247.96,.77,242.08,.63,248.96,.57,272.16,.46,289.20,.39,304.11,.40,304.98,.38,305.22,.37,305.47,.39,279.33,.47,253.09,.48,228.73,.14,206.66
2018.12.13-06:00,1.67,238.02,1.67,238.11,1.39,240.18,1.17,248.55,.88,238.53,.69,247.87,.54,270.05,.47,287.37,.39,297.91,.39,296.83,.38,297.28,.38,298.66,.40,277.81,.49,255.04,.51,232.67,.14,210.92
2018.12.13-07:00,1.58,240.34,1.58,240.53,1.41,239.53,1.15,249.42,.97,238.74,.73,247.42,.51,264.20,.46,284.73,.37,291.34,.39,288.77,.39,289.66,.39,291.36,.41,276.08,.51,256.05,.53,235.70,.15,214.43
2018.12.13-08:00,1.51,239.49,1.51,239.75,1.42,239.38,1.12,249.42,1.02,239.86,.75,246.10,.49,255.92,.44,282.29,.35,285.54,.38,282.42,.39,284.06,.40,286.01,.43,275.75,.52,257.59,.55,238.37,.15,217.27
2018.12.13-09:00,1.56,236.87,1.56,237.22,1.46,239.50,1.10,248.66,1.04,240.25,.76,243.65,.48,247.08,.39,279.76,.32,280.27,.36,278.05,.39,280.86,.41,283.35,.43,277.00,.52,260.06,.54,241.04,.15,219.34
2018.12.13-10:00,1.68,235.31,1.67,235.70,1.49,239.90,1.07,246.77,1.05,239.79,.78,241.42,.48,239.32,.33,275.82,.29,274.17,.33,274.33,.37,278.90,.40,282.41,.43,279.05,.51,263.17,.53,243.97,.14,221.36
2018.12.13-11:00,1.78,235.43,1.77,235.80,1.48,240.02,1.04,244.01,1.05,239.42,.80,240.58,.50,233.66,.28,269.12,.25,266.08,.30,269.63,.35,276.72,.39,281.78,.42,281.04,.50,266.29,.52,247.21,.13,223.90
2018.12.13-12:00,1.86,236.29,1.84,236.81,1.46,239.42,1.04,241.04,1.05,239.65,.81,240.79,.52,229.83,.24,257.68,.23,255.03,.27,263.28,.32,273.52,.36,280.70,.41,282.75,.49,269.29,.51,250.91,.13,227.80
2018.12.13-13:00,1.92,237.64,1.91,238.28,1.46,238.42,1.07,238.21,1.07,240.15,.83,241.35,.55,227.31,.22,241.12,.23,242.01,.25,255.08,.30,269.15,.34,278.86,.40,284.30,.47,272.13,.50,254.93,.12,233.51
2018.12.13-14:00,1.92,239.62,1.92,239.98,1.48,238.09,1.13,236.61,1.09,241.01,.85,242.54,.59,226.71,.24,225.32,.25,230.16,.25,245.34,.29,262.91,.32,275.42,.39,284.77,.45,273.96,.50,258.25,.11,239.62
2018.12.13-15:00,1.84,241.68,1.85,241.37,1.49,238.14,1.20,235.72,1.12,241.29,.90,243.78,.65,228.10,.30,216.01,.29,222.07,.27,236.14,.29,255.74,.31,270.58,.38,283.65,.44,274.40,.49,260.37,.11,244.74
2018.12.13-16:00,1.72,242.17,1.75,241.71,1.49,237.55,1.28,234.82,1.17,240.34,.97,244.81,.73,231.62,.37,213.10,.35,217.41,.30,229.31,.30,249.29,.32,265.56,.37,281.17,.43,273.82,.49,261.27,.11,248.10
2018.12.13-17:00,1.60,240.05,1.66,240.49,1.48,235.90,1.35,234.27,1.22,239.03,1.04,246.41,.80,236.47,.46,214.02,.41,214.91,.34,224.29,.33,243.77,.33,260.74,.37,277.42,.43,272.40,.49,260.83,.12,249.10
2018.12.13-18:00,1.50,236.38,1.58,238.21,1.46,233.70,1.39,234.41,1.25,238.36,1.09,248.70,.84,241.34,.54,216.50,.48,213.93,.39,220.24,.36,238.91,.35,256.14,.37,272.69,.44,270.40,.51,259.29,.12,247.94
2018.12.13-19:00,1.45,234.23,1.53,237.05,1.48,232.46,1.41,235.74,1.28,239.15,1.10,251.38,.84,245.14,.61,219.21,.54,213.74,.44,216.26,.38,234.01,.36,251.53,.37,267.43,.45,268.04,.52,257.04,.13,245.62
2018.12.13-20:00,1.49,233.73,1.54,236.31,1.55,232.18,1.46,237.79,1.30,240.92,1.09,253.49,.83,247.09,.66,221.79,.60,214.14,.48,212.11,.39,229.01,.36,247.41,.36,262.87,.44,266.18,.52,255.09,.14,243.53
2018.12.13-21:00,1.54,231.71,1.60,235.16,1.66,232.65,1.50,239.96,1.33,242.80,1.05,254.65,.81,247.64,.72,224.83,.64,215.04,.51,207.90,.39,223.66,.35,243.48,.34,259.02,.43,264.86,.52,253.81,.14,242.25
2018.12.13-22:00,1.61,229.09,1.66,233.63,1.75,233.78,1.52,241.75,1.32,244.52,.99,254.97,.79,247.65,.76,228.62,.67,216.42,.53,204.06,.38,217.83,.33,239.03,.31,254.91,.40,263.45,.51,253.29,.14,241.69
2018.12.13-23:00,1.65,227.19,1.70,232.36,1.81,235.73,1.48,242.40,1.29,245.74,.91,254.08,.74,247.14,.77,232.94,.69,218.18,.55,201.05,.38,212.01,.31,233.84,.29,249.85,.38,261.62,.51,253.63,.15,241.97
2018.12.13-24:00,1.72,226.32,1.76,231.65,1.85,238.30,1.42,241.53,1.22,246.08,.83,251.32,.70,245.60,.76,237.48,.69,220.35,.58,199.08,.39,206.80,.30,228.25,.27,243.95,.37,259.52,.53,254.75,.15,243.19
2018.12.14-01:00,1.82,226.19,1.84,231.54,1.85,241.46,1.37,240.24,1.14,245.97,.76,247.35,.66,243.49,.73,242.21,.69,223.10,.61,198.09,.41,202.61,.31,222.50,.27,237.14,.37,256.75,.55,255.92,.15,244.40
2018.12.14-02:00,1.96,226.35,1.96,231.52,1.83,245.05,1.35,240.50,1.05,246.45,.73,244.34,.65,242.52,.69,247.08,.68,226.34,.65,197.62,.45,199.54,.33,216.78,.29,229.83,.37,252.76,.59,256.44,.16,244.62
2018.12.14-03:00,2.11,227.40,2.10,232.18,1.78,248.29,1.36,242.62,1.00,247.13,.72,242.83,.66,243.16,.67,251.08,.66,229.14,.70,197.58,.50,197.95,.37,212.08,.32,223.87,.39,248.12,.62,256.40,.18,243.98
2018.12.14-04:00,2.24,229.16,2.24,233.32,1.71,249.72,1.38,245.78,.99,247.50,.75,242.42,.70,244.60,.65,253.28,.65,231.17,.74,198.15,.56,197.79,.41,209.12,.37,220.56,.42,243.89,.67,256.23,.19,243.17
2018.12.14-05:00,2.28,232.78,2.29,236.13,1.65,249.67,1.40,249.37,1.03,247.60,.80,242.46,.76,245.43,.64,253.08,.64,233.04,.80,199.51,.62,198.92,.47,207.76,.44,219.54,.46,240.11,.71,255.75,.20,242.28
2018.12.14-06:00,2.23,237.54,2.24,240.22,1.62,249.28,1.38,252.07,1.10,247.97,.86,242.41,.81,245.42,.65,250.86,.63,234.98,.84,201.49,.70,201.10,.54,207.63,.52,220.00,.52,237.06,.75,254.78,.21,240.97
2018.12.14-07:00,2.14,241.90,2.14,243.95,1.57,249.20,1.33,253.33,1.15,249.05,.91,242.51,.86,245.45,.68,248.64,.63,237.16,.88,203.80,.77,203.98,.62,208.13,.60,220.82,.58,234.87,.79,253.24,.22,239.22
2018.12.14-08:00,2.00,245.71,2.00,247.05,1.48,248.50,1.26,253.48,1.17,250.44,.96,242.86,.92,245.75,.74,247.84,.63,240.16,.90,206.23,.83,207.33,.71,209.03,.67,220.98,.65,233.42,.81,251.17,.22,237.14
2018.12.14-09:00,1.89,248.61,1.88,249.42,1.43,246.87,1.19,251.82,1.15,250.71,.99,242.48,.95,246.19,.79,247.80,.65,241.57,.90,208.23,.88,211.00,.78,210.90,.72,220.32,.70,232.74,.83,248.85,.23,235.01
2018.12.14-10:00,1.86,248.60,1.85,249.59,1.44,243.29,1.18,247.77,1.14,248.49,1.03,240.87,.97,246.37,.81,247.77,.66,241.24,.89,209.91,.90,215.17,.83,213.99,.76,219.81,.73,232.97,.83,246.93,.23,233.66
2018.12.14-11:00,1.85,247.14,1.85,248.53,1.49,240.00,1.19,243.93,1.16,246.10,1.08,239.82,.97,246.47,.80,247.85,.65,240.38,.85,212.52,.90,219.40,.86,217.45,.78,219.94,.74,233.30,.81,244.84,.23,232.26
2018.12.14-12:00,1.85,245.67,1.84,247.32,1.56,238.70,1.23,241.04,1.19,244.46,1.13,239.53,.98,246.62,.80,248.22,.64,240.31,.80,216.76,.88,223.16,.86,220.59,.79,220.92,.74,233.35,.79,242.60,.23,230.79
2018.12.14-13:00,1.89,245.30,1.87,246.90,1.61,240.14,1.30,240.44,1.25,244.82,1.18,240.29,1.00,247.27,.80,248.74,.64,241.14,.73,222.54,.84,226.33,.83,223.17,.79,222.18,.74,232.60,.77,239.97,.23,228.93
2018.12.14-14:00,1.91,245.15,1.89,246.53,1.63,241.66,1.35,240.56,1.29,245.80,1.23,242.08,1.01,248.52,.81,249.43,.65,243.04,.67,230.33,.79,229.79,.80,226.00,.78,223.77,.73,231.81,.76,237.41,.23,227.35
2018.12.14-15:00,1.91,242.88,1.88,244.09,1.61,240.88,1.39,240.30,1.31,246.27,1.27,244.54,1.01,249.78,.81,250.07,.66,245.80,.62,239.98,.75,234.48,.78,230.18,.77,226.27,.74,231.91,.76,235.43,.23,226.57
2018.12.14-16:00,1.93,242.11,1.89,243.17,1.60,239.64,1.44,240.30,1.32,246.48,1.30,247.60,1.02,250.46,.81,249.58,.67,248.15,.59,249.90,.71,239.80,.76,235.10,.77,228.92,.75,231.99,.76,233.31,.24,225.48
2018.12.14-17:00,1.93,242.76,1.90,243.69,1.62,237.73,1.48,240.10,1.33,246.35,1.30,250.92,1.05,251.66,.84,249.76,.70,251.33,.58,258.72,.67,245.13,.74,239.84,.77,231.02,.77,231.38,.77,230.93,.25,223.98
2018.12.14-18:00,1.91,242.80,1.88,243.82,1.69,236.36,1.54,240.86,1.38,247.02,1.28,253.21,1.08,252.94,.88,250.53,.72,254.42,.58,264.83,.64,250.25,.72,244.15,.77,232.88,.78,230.77,.80,229.31,.26,223.16
2018.12.14-19:00,1.90,242.27,1.87,243.63,1.79,235.68,1.60,242.14,1.44,249.26,1.29,255.40,1.12,254.92,.94,252.22,.77,257.15,.58,268.13,.60,254.25,.70,247.12,.76,233.77,.79,229.81,.83,227.98,.27,222.58
2018.12.14-20:00,1.89,241.95,1.86,243.93,1.92,237.07,1.67,243.59,1.50,251.86,1.32,258.02,1.15,257.90,.99,255.05,.81,259.72,.58,269.31,.58,256.73,.67,248.40,.76,233.57,.79,228.53,.85,226.62,.27,221.73
2018.12.14-21:00,1.90,240.35,1.85,243.03,2.02,239.79,1.73,246.49,1.54,255.20,1.35,261.48,1.16,261.73,1.02,258.54,.83,261.73,.59,269.36,.56,258.13,.65,248.23,.76,232.79,.80,227.30,.87,225.33,.27,220.67
2018.12.14-22:00,1.83,239.44,1.78,241.79,2.05,242.89,1.77,249.30,1.58,258.09,1.37,265.03,1.16,265.77,1.03,262.41,.83,263.19,.64,268.50,.56,258.58,.63,247.06,.77,232.09,.81,226.38,.88,224.21,.27,219.49
2018.12.14-23:00,1.79,238.70,1.76,240.40,2.01,245.87,1.72,251.38,1.55,259.87,1.34,267.46,1.12,268.30,1.01,265.45,.82,263.77,.69,267.69,.57,259.11,.62,246.25,.78,232.46,.83,226.71,.89,224.08,.27,219.01
2018.12.14-24:00,1.85,238.66,1.83,240.14,2.00,249.33,1.64,253.23,1.47,261.34,1.26,269.33,1.05,269.57,.99,267.96,.82,264.60,.72,266.54,.57,259.00,.61,245.69,.78,233.63,.84,228.11,.89,224.80,.27,219.18
2018.12.15-01:00,1.96,239.28,1.94,240.81,1.98,252.69,1.56,254.35,1.37,261.62,1.14,269.50,.95,268.41,.94,268.93,.81,265.69,.72,264.92,.57,258.38,.62,246.13,.80,235.93,.86,230.94,.89,226.90,.27,220.95
2018.12.15-02:00,2.06,238.74,2.03,240.45,1.91,254.13,1.52,253.99,1.31,260.05,1.05,267.22,.89,264.85,.90,268.42,.80,266.89,.70,263.34,.57,257.90,.63,247.96,.81,239.06,.86,234.29,.88,229.65,.27,223.21
2018.12.15-03:00,2.17,239.51,2.14,241.19,1.84,254.65,1.48,253.24,1.23,257.61,.97,263.49,.85,260.57,.87,267.11,.80,267.72,.69,261.49,.59,257.27,.66,250.03,.82,242.07,.86,236.93,.87,231.76,.27,224.47
2018.12.15-04:00,2.24,242.05,2.21,243.59,1.80,255.40,1.50,253.46,1.21,255.08,.95,258.64,.86,256.09,.86,264.82,.80,267.48,.70,259.26,.62,256.32,.68,251.48,.82,244.23,.84,238.54,.85,232.88,.26,224.56
2018.12.15-05:00,2.24,245.28,2.22,246.42,1.79,255.93,1.57,255.27,1.26,253.85,.97,254.70,.91,252.67,.86,262.02,.79,266.09,.71,256.99,.67,255.19,.72,252.22,.82,245.50,.83,239.87,.84,234.09,.26,225.16
2018.12.15-06:00,2.20,248.19,2.19,249.14,1.78,255.51,1.61,257.92,1.32,254.11,1.02,252.73,.97,251.11,.89,259.62,.78,263.76,.73,254.97,.71,253.99,.75,252.29,.83,246.04,.83,241.22,.85,236.03,.26,227.04
2018.12.15-07:00,2.16,250.85,2.15,251.74,1.79,254.78,1.62,260.45,1.36,255.13,1.08,252.10,1.04,251.01,.95,258.72,.80,261.33,.75,253.60,.74,252.93,.78,251.94,.85,246.07,.83,242.11,.87,238.08,.27,229.14
2018.12.15-08:00,2.08,253.34,2.07,254.24,1.81,254.49,1.59,262.54,1.39,256.62,1.13,252.03,1.10,251.53,1.01,258.97,.84,259.35,.79,253.22,.76,252.30,.81,251.60,.89,246.05,.83,242.43,.88,239.70,.27,230.58
2018.12.15-09:00,1.97,254.18,1.97,255.20,1.83,253.84,1.55,262.85,1.40,257.59,1.17,251.94,1.14,252.34,1.03,259.45,.86,257.90,.83,254.27,.79,252.93,.84,251.98,.92,246.73,.82,242.57,.87,240.77,.27,231.40
2018.12.15-10:00,1.79,255.20,1.79,256.39,1.79,254.37,1.48,262.29,1.39,258.73,1.21,252.34,1.18,253.73,1.03,259.46,.89,256.69,.86,256.01,.82,254.08,.88,252.48,.95,247.62,.81,242.30,.87,240.87,.27,231.70
2018.12.15-11:00,1.62,255.58,1.63,256.61,1.75,255.83,1.43,260.91,1.36,259.35,1.24,253.22,1.21,255.88,1.03,259.25,.91,255.86,.87,257.84,.84,255.36,.90,252.81,.96,247.90,.81,241.45,.87,240.00,.27,231.27
2018.12.15-12:00,1.60,252.80,1.61,253.82,1.77,256.39,1.43,258.52,1.35,258.57,1.29,254.12,1.24,258.28,1.04,259.24,.92,255.87,.86,259.79,.84,256.90,.91,253.23,.93,247.70,.80,240.55,.85,239.08,.27,230.91
2018.12.15-13:00,1.66,248.42,1.67,249.50,1.78,255.51,1.41,255.05,1.33,256.64,1.32,255.05,1.25,260.41,1.04,259.76,.94,257.07,.85,261.62,.83,258.35,.90,253.70,.90,247.19,.79,239.92,.83,238.64,.26,230.60
2018.12.15-14:00,1.78,245.59,1.78,246.43,1.77,253.55,1.41,250.56,1.30,253.51,1.33,255.48,1.23,261.28,1.04,260.12,.95,258.70,.84,262.95,.83,259.72,.88,254.29,.88,246.75,.79,239.95,.81,238.96,.26,230.38
2018.12.15-15:00,1.88,245.36,1.88,245.92,1.77,251.58,1.44,246.68,1.31,250.19,1.34,255.76,1.21,261.04,1.03,259.84,.95,259.78,.82,263.21,.82,260.60,.87,254.70,.86,246.25,.79,240.31,.79,239.67,.25,229.97
2018.12.15-16:00,1.94,246.47,1.94,246.86,1.78,250.27,1.50,244.77,1.35,247.79,1.35,256.25,1.21,260.65,1.04,259.22,.94,260.01,.81,262.28,.81,260.76,.85,254.80,.85,245.56,.79,240.61,.78,240.35,.25,229.53
2018.12.15-17:00,1.93,247.52,1.93,247.84,1.79,249.50,1.56,245.05,1.42,247.13,1.38,257.33,1.23,260.75,1.06,258.89,.95,259.82,.81,260.46,.80,260.21,.84,254.56,.85,244.65,.79,240.40,.78,240.55,.25,228.99
2018.12.15-18:00,1.88,247.89,1.88,248.24,1.80,248.75,1.63,246.66,1.50,247.98,1.41,259.09,1.26,261.33,1.09,259.08,.97,259.68,.81,258.36,.79,259.23,.84,254.13,.86,243.74,.80,239.49,.78,240.03,.25,228.19
2018.12.15-19:00,1.87,248.42,1.87,248.83,1.85,248.73,1.69,248.98,1.58,250.00,1.43,261.16,1.27,262.25,1.11,259.80,.98,260.04,.81,256.64,.77,258.09,.83,253.53,.87,242.76,.81,237.68,.79,238.45,.26,226.75
2018.12.15-20:00,1.88,249.05,1.88,249.58,1.90,249.68,1.74,251.73,1.63,253.16,1.43,263.30,1.28,263.79,1.11,261.23,.98,261.01,.82,255.84,.76,256.84,.83,252.59,.89,241.45,.84,235.02,.81,235.64,.27,224.46
2018.12.15-21:00,1.86,248.96,1.86,249.65,1.93,251.13,1.74,254.41,1.64,257.22,1.40,265.13,1.27,266.10,1.11,263.29,.98,262.38,.83,256.03,.76,255.53,.82,251.26,.92,240.00,.87,232.25,.85,232.40,.28,221.92
2018.12.15-22:00,1.86,247.52,1.86,248.18,1.94,252.34,1.74,256.38,1.62,261.21,1.36,266.52,1.25,268.33,1.09,265.54,.96,263.70,.83,256.91,.75,254.52,.81,249.83,.94,238.76,.91,230.26,.89,229.80,.30,219.98
2018.12.15-23:00,1.92,246.30,1.92,246.83,1.95,253.72,1.74,258.07,1.58,264.37,1.32,267.54,1.21,269.68,1.06,267.57,.92,264.42,.83,257.92,.74,253.54,.79,248.23,.94,237.76,.94,229.13,.93,228.28,.32,218.70
2018.12.15-24:00,2.00,246.35,1.98,246.82,1.95,255.84,1.72,259.83,1.52,266.31,1.26,267.66,1.16,269.97,1.03,269.03,.88,264.18,.81,258.56,.72,252.10,.78,246.62,.94,237.24,.97,229.05,.97,228.20,.32,218.28
2018.12.16-01:00,2.08,247.29,2.07,247.72,1.92,257.64,1.70,261.06,1.45,266.32,1.20,265.99,1.11,268.91,.98,269.42,.84,262.84,.78,258.63,.69,250.34,.76,245.57,.93,237.51,.98,230.16,.99,229.59,.33,218.85
2018.12.16-02:00,2.18,249.61,2.17,249.91,1.89,258.72,1.67,261.54,1.37,264.35,1.15,262.27,1.04,266.30,.92,268.12,.80,260.24,.75,257.89,.67,248.30,.74,245.28,.91,238.65,.97,232.32,1.00,232.07,.32,220.20
2018.12.16-03:00,2.26,252.93,2.25,253.03,1.87,258.97,1.65,261.50,1.32,261.15,1.12,257.59,.99,262.25,.86,264.82,.77,256.52,.72,256.25,.65,246.09,.73,245.45,.88,240.39,.95,234.90,1.00,234.86,.32,221.91
2018.12.16-04:00,2.30,255.97,2.29,255.87,1.87,258.30,1.64,261.27,1.30,257.90,1.12,253.52,.96,257.41,.82,259.89,.75,252.18,.70,253.83,.64,243.94,.71,245.77,.86,242.39,.93,237.44,.99,237.46,.31,223.90
2018.12.16-05:00,2.30,258.16,2.30,257.90,1.92,257.13,1.65,261.36,1.32,255.90,1.14,251.13,.95,252.94,.80,254.48,.76,248.04,.69,250.87,.65,241.88,.70,245.85,.84,244.13,.90,239.47,.99,239.40,.30,225.72
2018.12.16-06:00,2.27,260.03,2.27,259.66,1.97,256.07,1.66,261.80,1.37,255.25,1.17,249.92,.97,249.35,.82,249.41,.79,244.61,.70,247.70,.67,240.06,.70,245.75,.82,245.35,.88,240.73,.98,240.57,.30,227.07
2018.12.16-07:00,2.19,261.64,2.20,261.18,2.04,255.67,1.66,262.34,1.41,255.60,1.19,249.26,1.01,246.82,.86,245.47,.84,242.38,.73,244.96,.70,238.64,.70,245.52,.81,246.03,.85,241.13,.97,240.96,.29,227.77
2018.12.16-08:00,2.08,262.78,2.10,262.31,2.12,256.57,1.65,262.58,1.45,256.38,1.22,248.78,1.05,245.43,.92,242.99,.89,241.47,.76,243.10,.73,237.70,.71,245.08,.80,246.11,.84,240.57,.97,240.52,.29,227.78
2018.12.16-09:00,1.99,262.71,2.00,262.30,2.16,258.41,1.64,262.01,1.47,256.83,1.25,248.58,1.10,245.04,.98,242.01,.94,241.91,.79,242.23,.76,237.37,.71,244.49,.79,245.48,.83,239.13,.97,239.22,.29,227.11
2018.12.16-10:00,1.87,261.09,1.89,260.64,2.13,260.01,1.63,260.27,1.48,256.30,1.28,248.61,1.13,245.28,1.04,242.44,.99,243.63,.81,242.30,.78,237.87,.71,244.10,.79,244.30,.83,237.24,.98,237.43,.30,226.19
2018.12.16-11:00,1.75,258.70,1.79,257.88,2.03,260.78,1.62,257.94,1.49,254.87,1.32,248.98,1.17,245.99,1.09,243.90,1.02,246.06,.83,242.90,.79,238.83,.70,243.79,.78,242.66,.83,235.10,.98,235.37,.30,225.18
2018.12.16-12:00,1.69,254.98,1.72,254.61,1.92,260.11,1.61,254.97,1.50,252.61,1.34,249.86,1.20,247.27,1.13,245.96,1.03,248.64,.85,243.76,.80,240.06,.69,243.57,.76,240.94,.83,233.13,.98,233.47,.31,224.25
2018.12.16-13:00,1.76,251.10,1.78,250.76,1.91,257.69,1.67,250.78,1.57,249.94,1.37,251.02,1.23,249.08,1.15,248.29,1.02,251.00,.83,244.38,.78,241.41,.65,243.29,.73,239.21,.81,231.32,.97,231.78,.31,223.19
2018.12.16-14:00,1.87,249.40,1.91,248.93,1.96,255.82,1.78,247.87,1.65,248.52,1.39,252.48,1.25,251.45,1.15,250.60,.99,252.65,.81,244.46,.76,242.23,.62,242.33,.70,237.04,.80,229.49,.95,230.17,.30,221.79
2018.12.16-15:00,1.98,249.24,2.03,248.71,2.00,254.65,1.89,247.29,1.72,248.49,1.38,253.84,1.27,254.12,1.15,252.74,.96,253.59,.79,244.19,.74,242.33,.59,240.84,.67,234.45,.78,227.64,.93,228.52,.30,220.14
2018.12.16-16:00,2.05,249.64,2.11,248.95,2.02,253.55,1.97,248.27,1.78,249.14,1.38,254.67,1.28,256.67,1.14,254.69,.94,254.18,.78,243.98,.72,242.05,.57,239.25,.65,231.88,.78,225.85,.92,226.89,.30,218.46
2018.12.16-17:00,2.08,250.28,2.16,249.24,2.04,252.39,2.01,249.83,1.83,250.27,1.37,254.93,1.26,258.64,1.12,256.33,.92,254.86,.77,244.28,.72,241.75,.56,237.48,.65,229.54,.79,224.17,.93,225.29,.30,216.94
2018.12.16-18:00,2.10,251.34,2.18,249.83,2.07,251.67,2.01,251.46,1.86,251.79,1.36,254.24,1.23,259.24,1.09,257.20,.91,255.72,.77,245.26,.72,241.60,.56,235.67,.66,227.71,.82,222.90,.94,223.93,.31,215.70
2018.12.16-19:00,2.09,252.42,2.17,250.51,2.09,251.46,1.98,252.75,1.87,253.71,1.36,252.82,1.20,258.62,1.06,257.24,.91,256.66,.77,246.63,.73,241.57,.57,234.16,.69,226.67,.85,222.38,.97,223.22,.31,215.00
2018.12.16-20:00,2.07,253.16,2.14,251.31,2.12,251.92,1.96,253.46,1.87,255.85,1.39,251.73,1.18,257.65,1.04,256.68,.90,257.35,.77,247.63,.74,241.28,.59,232.86,.73,226.29,.90,222.47,1.01,223.06,.32,214.60
2018.12.16-21:00,2.02,254.31,2.08,252.37,2.12,253.22,1.96,253.78,1.87,257.79,1.43,252.13,1.16,257.07,1.02,256.06,.89,257.51,.77,247.77,.76,240.39,.61,231.63,.77,226.39,.94,223.00,1.04,223.21,.33,214.28
2018.12.16-22:00,1.94,255.23,1.99,252.94,2.08,254.66,1.97,254.25,1.85,259.16,1.46,253.89,1.15,257.05,1.00,255.78,.87,257.30,.77,247.28,.77,239.20,.64,230.88,.82,227.06,.98,223.97,1.08,223.57,.34,214.17
2018.12.16-23:00,1.88,254.43,1.94,252.13,2.04,255.19,2.01,255.14,1.84,260.06,1.46,256.10,1.14,257.30,.99,255.87,.85,257.00,.76,246.59,.77,238.10,.65,230.81,.86,228.13,1.01,225.06,1.10,223.82,.35,214.01
2018.12.16-24:00,1.87,253.45,1.94,250.35,2.04,254.81,2.06,256.33,1.84,260.93,1.44,258.20,1.13,257.59,.98,256.04,.83,256.27,.74,245.60,.76,237.00,.65,231.34,.88,229.40,1.02,226.05,1.10,223.89,.35,213.74
2018.12.17-01:00,1.83,253.53,1.97,248.49,2.05,254.11,2.08,257.65,1.82,261.80,1.40,259.76,1.10,257.54,.95,255.68,.79,254.37,.72,244.02,.75,236.05,.65,232.89,.89,231.24,1.02,227.38,1.10,224.36,.34,213.96
2018.12.17-02:00,1.74,254.56,1.99,247.11,2.03,253.31,2.04,258.99,1.76,262.51,1.32,260.42,1.05,256.66,.91,254.42,.76,251.18,.71,241.89,.74,235.61,.64,235.37,.88,233.75,1.01,229.21,1.10,225.40,.34,214.72
2018.12.17-03:00,1.70,254.40,2.05,246.93,2.04,252.81,1.98,259.94,1.68,262.54,1.24,259.63,1.01,254.53,.87,251.90,.73,246.97,.70,239.40,.74,235.64,.62,238.19,.86,236.59,1.00,231.24,1.09,226.74,.33,215.79
2018.12.17-04:00,1.76,252.54,2.14,248.01,2.09,252.92,1.93,260.17,1.61,261.45,1.19,257.12,.97,251.14,.84,248.06,.72,242.28,.70,236.97,.72,235.91,.60,240.93,.83,239.39,.97,233.09,1.07,228.02,.33,216.95
2018.12.17-05:00,1.84,249.84,2.23,249.99,2.14,253.56,1.89,259.96,1.58,259.73,1.18,253.77,.98,247.42,.84,243.70,.74,238.12,.70,235.26,.71,236.28,.58,243.20,.79,241.65,.94,234.37,1.05,228.95,.32,217.93
2018.12.17-06:00,2.13,239.81,2.27,251.56,2.18,253.80,1.86,259.01,1.57,257.76,1.20,250.51,1.01,244.53,.87,240.06,.78,235.63,.73,235.05,.71,237.10,.55,245.24,.74,243.22,.90,235.05,1.03,229.59,.31,218.85
2018.12.17-07:00,2.41,239.09,2.24,252.51,2.19,253.89,1.82,257.55,1.57,256.14,1.23,248.19,1.07,243.34,.93,238.16,.84,235.13,.77,236.26,.71,238.23,.54,246.80,.71,243.77,.88,234.94,1.01,229.80,.30,219.52
2018.12.17-08:00,2.51,241.04,2.22,253.58,2.23,254.84,1.81,256.16,1.58,254.75,1.29,246.68,1.14,243.09,1.00,237.80,.92,236.00,.83,238.10,.72,239.21,.52,247.51,.67,242.99,.85,233.80,.99,229.24,.29,219.48
2018.12.17-09:00,2.48,246.14,2.23,254.85,2.28,256.77,1.84,255.05,1.61,253.14,1.36,245.68,1.19,242.76,1.07,238.24,1.01,237.78,.88,240.02,.73,240.08,.51,247.26,.64,241.05,.82,231.76,.97,227.94,.29,218.74
2018.12.17-10:00,2.44,250.58,2.27,255.72,2.31,258.78,1.88,254.20,1.64,251.30,1.42,245.39,1.25,242.63,1.14,239.50,1.08,240.41,.93,241.96,.73,240.83,.49,245.82,.62,238.31,.81,229.15,.96,226.16,.29,217.47
2018.12.17-11:00,2.40,251.97,2.29,255.49,2.28,259.29,1.90,252.61,1.66,248.87,1.47,245.70,1.29,243.08,1.19,241.75,1.13,243.86,.96,244.28,.74,241.60,.48,243.80,.61,235.67,.80,226.67,.95,224.37,.29,216.31
2018.12.17-12:00,2.36,251.65,2.29,255.05,2.21,259.01,1.91,251.25,1.70,246.94,1.50,246.50,1.33,244.29,1.22,244.66,1.15,247.52,.98,246.79,.74,241.76,.47,240.74,.61,232.98,.80,224.26,.95,222.44,.29,215.09
2018.12.17-13:00,2.30,251.64,2.27,254.88,2.13,258.37,1.92,250.80,1.75,246.02,1.52,247.45,1.36,245.88,1.23,247.68,1.14,250.90,.98,249.29,.74,241.28,.47,237.03,.61,230.70,.81,222.32,.94,220.59,.30,213.94
2018.12.17-14:00,2.26,251.78,2.26,254.87,2.04,257.04,1.92,250.71,1.79,245.77,1.54,248.42,1.37,247.46,1.23,250.47,1.12,253.76,.96,251.60,.74,240.48,.47,233.77,.62,229.68,.82,221.27,.94,219.14,.30,213.01
2018.12.17-15:00,2.29,251.83,2.32,255.36,2.03,255.19,1.96,250.49,1.85,246.12,1.56,249.33,1.38,248.96,1.21,252.96,1.08,255.94,.91,253.30,.72,239.16,.46,230.86,.61,229.63,.83,220.63,.92,217.82,.30,212.02
2018.12.17-16:00,2.33,252.50,2.40,256.58,2.05,253.64,2.01,250.61,1.92,247.34,1.59,249.94,1.37,250.40,1.19,255.06,1.03,257.37,.86,254.31,.70,237.41,.45,228.15,.60,230.18,.82,220.11,.90,216.50,.30,210.75
2018.12.17-17:00,2.33,253.13,2.44,257.65,2.09,252.37,2.04,250.79,1.97,249.00,1.62,250.38,1.37,251.66,1.17,256.62,.98,258.27,.81,255.00,.69,236.00,.45,226.31,.59,231.22,.83,219.79,.89,215.36,.30,209.37
2018.12.17-18:00,2.26,252.90,2.39,258.04,2.10,251.23,2.05,250.95,2.00,251.10,1.65,251.38,1.36,252.69,1.15,257.62,.95,258.91,.78,255.52,.69,235.37,.45,225.35,.59,232.18,.84,219.60,.89,214.43,.30,208.06
2018.12.17-19:00,2.15,251.21,2.28,257.21,2.08,249.74,2.03,250.55,2.02,253.12,1.67,253.01,1.37,253.35,1.13,258.16,.93,259.30,.77,255.68,.71,235.57,.47,225.60,.59,233.25,.86,219.96,.90,214.21,.30,207.37
2018.12.17-20:00,2.01,248.13,2.12,255.07,2.04,248.04,2.01,249.77,2.01,254.71,1.69,255.17,1.38,253.69,1.12,258.40,.93,259.30,.76,255.05,.74,236.25,.49,227.20,.61,234.76,.89,221.29,.92,215.27,.30,207.78
2018.12.17-21:00,1.90,244.02,2.00,251.64,2.01,246.53,2.01,249.45,1.99,256.00,1.70,257.77,1.39,254.24,1.12,258.66,.93,258.92,.76,253.36,.77,236.84,.51,229.35,.63,236.31,.92,223.22,.95,217.23,.31,209.14
2018.12.17-22:00,1.86,240.10,1.96,248.00,2.03,245.92,2.02,249.98,1.96,257.18,1.68,260.38,1.39,255.31,1.12,259.05,.92,258.24,.77,250.71,.80,237.16,.53,231.47,.66,237.66,.95,225.40,.98,219.58,.31,210.86
2018.12.17-23:00,1.90,237.14,2.00,245.18,2.10,246.29,2.05,251.22,1.95,258.31,1.64,262.24,1.37,256.82,1.10,259.22,.89,256.89,.77,247.21,.82,237.35,.54,233.48,.68,238.98,.98,227.63,1.01,221.97,.32,212.68